Location: Mary A Oil Field
(38.5606°N, 98.9545°W)
Time: 21:46:23
(UTC+00:00)

H-2A ROCKET BODY - Pass Details

Date: 20 January 2020
Orbit: 241 x 15393 km, 28.6° (Epoch: 25 February)

Event Time Altitude Azimuth Distance (km) Brightness Sun altitude
Rises 01:08:25 0° 265° (W) 7,330 8.8 -16.6°
Reaches altitude 10° 01:16:06 10° 257° (WSW) 4,212 7.1 -18.1°
Maximum altitude 01:23:09 25° 205° (SSW) 1,475 3.8 -19.4°
Enters shadow 01:25:22 15° 155° (SSE) 1,448 3.3 -19.8°
